Location: Ammerl�gen
(47.2167°N, 9.6000°E)
Time: 12:47:07
(UTC+00:00)

Iridium 4 Rocket - Pass Details

Date: 01 August 2021
Orbit: 583 x 905 km, 86.9° (Epoch: 25 September)

Event Time Altitude Azimuth Distance (km) Brightness Sun altitude
Rises 02:41:00 0° 343° (NNW) 3,430 7.2 -11.7°
Reaches altitude 10° 02:44:08 10° 325° (NW) 2,532 6.3 -11.4°
Maximum altitude 02:47:50 18° 285° (WNW) 2,051 5.4 -10.9°
Enters shadow 02:51:09 12° 248° (WSW) 2,470 5.5 -10.5°
